Weather History for Missoula, MT

Change the Weather History Date:

Saturday, February 16, 2013

  Actual Average Record
Temperature  
Mean Temperature 31 °F 30 °F  
Max Temperature 40 °F 39 °F 58 °F (1977)
Min Temperature 22 °F 21 °F -20 °F (1956)
Degree Days  
Heating Degree Days 34 35  
Month to date heating degree days 505 580  
Since 1 July heating degree days 4612 4969  
Cooling Degree Days 0 0  
Month to date cooling degree days 0 0  
Year to date cooling degree days 0 0  
Moisture  
Dew Point 28 °F    
Average Humidity 85    
Maximum Humidity 100    
Minimum Humidity 70    
Precipitation  
Precipitation 0.04 in 0.02 in 0.36 in (2011)
Month to date precipitation 0.20 0.39  
Year to date precipitation 1.35 1.24  
Snow  
Snow T in - - ()
Month to date snowfall 1.6  
Year to date snowfall 13.0  
Since 1 July snowfall 34.1  
Snow Depth 0.00 in    
Sea Level Pressure  
Sea Level Pressure 30.13 in    
Wind  
Wind Speed 3 mph (NW)    
Max Wind Speed 16 mph    
Max Gust Speed 21 mph    
Visibility 9 miles    
Events Snow    
T = Trace of Precipitation, MM = Missing Value Source: NWS Daily Summary

Daily Weather History Graph

Daily Weather History Graph

Search for Another Location

Airport:

Trip Planner

Search our weather history database for the weather conditions in past years. The results will help you decide how hot, cold, wet, or windy it might be!

Date:

Astronomy

Feb. 16, 2013 Rise Set
Actual Time 7:38 AM MST 6:03 PM MST
Civil Twilight 7:07 AM MST 6:34 PM MST
Nautical Twilight 6:31 AM MST 7:09 PM MST
Astronomical Twilight 5:56 AM MST 7:44 PM MST
Moon 10:25 AM MST (2/16) 12:33 AM MST (2/16)
Length of Visible Light 11h 26m
Length of Day
10h 24m
Waxing Crescent, 40% of the Moon is Illuminated
Feb 16
Waxing Crescent
Feb 17
First Quarter
Feb 25
Full
Mar 4
Last Quarter
Mar 11
New

Hourly Weather History & Observations

Time (MST) Temp. Windchill Dew Point Humidity Pressure Visibility Wind Dir Wind Speed Gust Speed Precip Events Conditions
12:53 AM 28.9 °F 25.2 °F 25.0 °F 85% 30.38 in 10.0 mi ESE 3.5 mph - N/A   Clear
1:53 AM 28.0 °F - 26.1 °F 92% 30.36 in 10.0 mi Calm Calm - N/A   Clear
2:53 AM 27.0 °F - 24.1 °F 89% 30.34 in 10.0 mi Calm Calm - N/A   Clear
3:53 AM 25.0 °F - 23.0 °F 92% 30.34 in 10.0 mi Calm Calm - N/A   Clear
4:53 AM 26.1 °F - 23.0 °F 88% 30.32 in 10.0 mi Calm Calm - N/A   Clear
5:53 AM 25.0 °F - 23.0 °F 92% 30.31 in 10.0 mi Calm Calm - N/A   Clear
6:32 AM 24.8 °F - 23.0 °F 93% 30.21 in 9.0 mi Calm Calm - N/A   Partly Cloudy
6:53 AM 24.1 °F - 23.0 °F 96% 30.30 in 9.0 mi Calm Calm - N/A   Mostly Cloudy
6:55 AM 23.0 °F - 21.2 °F 93% 30.21 in 9.0 mi Calm Calm - N/A   Partly Cloudy
7:53 AM 21.9 °F - 21.0 °F 96% 30.30 in 9.0 mi Calm Calm - N/A   Partly Cloudy
8:53 AM 27.0 °F - 25.0 °F 92% 30.29 in 10.0 mi Calm Calm - N/A   Clear
9:08 AM 26.6 °F - 24.8 °F 93% 30.19 in 2.5 mi Calm Calm - N/A   Partly Cloudy
9:10 AM 26.6 °F - 24.8 °F 93% 30.19 in 1.0 mi Calm Calm - N/A   Mist
9:17 AM 26.6 °F - 24.8 °F 93% 30.19 in 9.0 mi Calm Calm - N/A   Partly Cloudy
9:53 AM 28.9 °F - 27.0 °F 92% 30.27 in 10.0 mi Calm Calm - N/A   Clear
10:53 AM 30.9 °F - 28.0 °F 89% 30.25 in 10.0 mi Calm Calm - N/A   Overcast
11:53 AM 37.0 °F - 30.0 °F 76% 30.19 in 10.0 mi Calm Calm - N/A   Scattered Clouds
12:53 PM 35.6 °F - 30.2 °F 81% 30.07 in 10.0 mi Calm Calm - N/A   Overcast
1:53 PM 37.9 °F 34.4 °F 30.9 °F 76% 30.11 in 10.0 mi WNW 4.6 mph - N/A   Overcast
2:53 PM 39.0 °F 34.8 °F 30.9 °F 73% 30.07 in 10.0 mi West 5.8 mph - N/A   Overcast
3:53 PM 37.9 °F - 30.0 °F 73% 30.04 in 10.0 mi Calm Calm - N/A   Overcast
4:53 PM 39.0 °F - 32.0 °F 76% 30.00 in 10.0 mi Calm Calm - N/A   Overcast
5:53 PM 39.0 °F - 30.9 °F 73% 29.96 in 10.0 mi Calm Calm - N/A   Overcast
6:53 PM 36.0 °F 33.3 °F 30.0 °F 79% 29.93 in 10.0 mi SE 3.5 mph - N/A   Mostly Cloudy
7:53 PM 36.0 °F 26.3 °F 30.9 °F 82% 29.95 in 10.0 mi NW 16.1 mph 20.7 mph 0.00 in   Overcast
8:53 PM 39.0 °F 35.7 °F 34.0 °F 82% 29.92 in 10.0 mi North 4.6 mph - 0.02 in   Overcast
9:46 PM 37.4 °F 31.4 °F 33.8 °F 87% 29.88 in 10.0 mi NW 8.1 mph 20.7 mph N/A   Overcast
9:53 PM 37.0 °F 28.1 °F 33.1 °F 86% 29.95 in 10.0 mi NNW 15.0 mph 20.7 mph N/A   Overcast
10:53 PM 36.0 °F 29.6 °F 32.0 °F 86% 29.94 in 10.0 mi NNW 8.1 mph - N/A   Overcast
11:38 PM 35.6 °F 30.7 °F 32.0 °F 87% 29.86 in 10.0 mi WNW 5.8 mph - N/A   Overcast
11:49 PM 35.6 °F 29.2 °F 32.0 °F 87% 29.87 in 10.0 mi WNW 8.1 mph - 0.00 in   Overcast
11:53 PM 35.1 °F 26.9 °F 32.0 °F 89% 29.94 in 9.0 mi NW 11.5 mph - 0.00 in Snow Light Snow